(159228) = 2005 XD5

Discovered at Kitami on 2005-12-01 by K. Endate.

Orbit

Orbit type: Main Belt

Note: WebGL enabled browser required.

epoch2024-03-31.0
epoch JD2460400.5
perihelion date2021-12-22.29476
perihelion JD2459570.79476
argument of perihelion (°)170.57308
ascending node (°)224.70384
inclination (°)7.52497
eccentricity0.1469311
perihelion distance (AU)1.8761016
Tisserand w.r.t. Jupiter3.6
ΔV w.r.t. Earth (km/sec)8.7
semimajor axis (AU)2.1992381
mean anomaly (°)250.73750
mean daily motion (°/day)0.30220070
aphelion distance (AU)2.522
period (years)3.26
P-vector [x]0.81537809
P-vector [y]0.52225995
P-vector [z]0.24980616
Q-vector [x]-0.57155243
Q-vector [y]0.79485372
Q-vector [z]0.20380230
absolute magnitude16.89
phase slope0.15
uncertainty0
referenceMPEC 2024-E179
observations used795
oppositions17
arc length (days)9000
first opposition used1998
last opposition used2023
residual rms (arc-secs)0.67
perturbers coarse indicatorM-v
perturbers precise indicator003Ek
first observation date used1998-08-27.0
last observation date used2023-04-18.0
computer nameMPCLINUX
JD of orbit computation2456847.685955
perihelion JD uncertainty (days)4.2405E-05
argument of perihelion uncertainty (°)2.5849E-05
ascending node uncertainty (°)2.3599E-05
inclination uncertainty (°)2.9994E-06
eccentricity uncertainty 3.7144E-08
perihelion distance uncertainty (AU)8.9254E-08
Minimum Orbit Intersection Distances (in AU)
for orbit epoch: 2460400.5, reference: E2024-GD4
Mercury1.54956
Venus1.1543
Earth0.88373
Mars0.40762
Jupiter2.88401
Saturn6.98916
Uranus16.0273
Neptune27.9497

Observations

817 total observations over interval: 1998 08 27.20985 – 2023 04 18.254979
These data are available for download (format description).

Date (UT) J2000 RA J2000 Dec Magn Location Ref
1998 08 27.20985 21 05 51.85 -01 44 43.2 19.2   704 – Lincoln Laboratory ETS, New Mexico MPS 213626
1998 08 27.22741 21 05 50.94 -01 44 52.0 19.1   704 – Lincoln Laboratory ETS, New Mexico MPS 213626
1998 08 27.24496 21 05 50.02 -01 45 00.9 19.1   704 – Lincoln Laboratory ETS, New Mexico MPS 213626
2000 05 05.216420 10 20 29.203 +02 48 06.75 21.34 V 645 – Apache Point-Sloan Digital Sky Survey MPS 157852
2000 05 05.219892 10 20 29.307 +02 48 07.10 22.42   645 – Apache Point-Sloan Digital Sky Survey MPS 157852
2002 12 14.420490 08 49 13.811 +06 27 15.32 20.16 V 645 – Apache Point-Sloan Digital Sky Survey MPS 156161
2002 12 14.423962 08 49 13.764 +06 27 14.17 21.08   645 – Apache Point-Sloan Digital Sky Survey MPS 156161
2003 01 05.32355 08 37 00.81 +05 19 24.4 19.2   704 – Lincoln Laboratory ETS, New Mexico MPS 156161
2003 01 05.33854 08 36 59.93 +05 19 25.1 19.7   704 – Lincoln Laboratory ETS, New Mexico MPS 156161
2003 01 05.36932 08 36 58.16 +05 19 25.2 19.8   704 – Lincoln Laboratory ETS, New Mexico MPS 156161
2003 01 05.38456 08 36 57.29 +05 19 23.4 20.1   704 – Lincoln Laboratory ETS, New Mexico MPS 156161
2003 01 28.323560 08 12 53.688 +06 01 18.32 19.65 V 645 – Apache Point-Sloan Digital Sky Survey MPS 156161
2003 01 28.327032 08 12 53.458 +06 01 19.11 20.55   645 – Apache Point-Sloan Digital Sky Survey MPS 156161
2003 02 04.28374 08 05 46.22 +06 32 14.6 19.6   644 – Palomar Mountain/NEAT MPS 156161
2003 02 04.31059 08 05 44.60 +06 32 22.2 19.4   644 – Palomar Mountain/NEAT MPS 156161
2003 02 04.34239 08 05 42.69 +06 32 31.5 19.8   644 – Palomar Mountain/NEAT MPS 156161
2004 06 22.26643 15 53 55.37 -14 35 43.5 20.5 V 691 – Steward Observatory, Kitt Peak-Spacewatch MPS 157852
2004 06 22.29327 15 53 54.22 -14 35 37.8 20.4 V 691 – Steward Observatory, Kitt Peak-Spacewatch MPS 157852
2004 06 22.32482 15 53 52.83 -14 35 31.0 20.5 V 691 – Steward Observatory, Kitt Peak-Spacewatch MPS 157852
2005 10 01.36568 05 06 35.19 +22 18 42.1 19.9   704 – Lincoln Laboratory ETS, New Mexico MPS 157852
2005 10 01.37646 05 06 35.90 +22 18 40.2 19.9   704 – Lincoln Laboratory ETS, New Mexico MPS 157852
2005 10 01.38737 05 06 36.54 +22 18 36.9 20.2   704 – Lincoln Laboratory ETS, New Mexico MPS 157852
2005 10 01.39808 05 06 37.14 +22 18 36.1 20.1   704 – Lincoln Laboratory ETS, New Mexico MPS 157852
2005 10 01.40877 05 06 37.69 +22 18 31.6 20.0   704 – Lincoln Laboratory ETS, New Mexico MPS 157852
2005 10 29.42161 05 20 23.35 +19 47 49.0 18.7 V G96 – Mt. Lemmon Survey MPS 157852
2005 10 29.42847 05 20 23.28 +19 47 46.2 18.8 V G96 – Mt. Lemmon Survey MPS 157852
2005 10 29.43544 05 20 23.24 +19 47 43.4 18.9 V G96 – Mt. Lemmon Survey MPS 157852
2005 10 29.44234 05 20 23.17 +19 47 40.5 18.9 V G96 – Mt. Lemmon Survey MPS 157852
2005 11 28.37427 05 01 23.55 +15 58 39.6 18.2 V 703 – Catalina Sky Survey MPS 154095
2005 11 28.38338 05 01 22.90 +15 58 33.6 17.7 V 703 – Catalina Sky Survey MPS 154095
2005 11 28.39247 05 01 22.44 +15 58 30.5 17.9 V 703 – Catalina Sky Survey MPS 154095
2005 11 28.40156 05 01 21.93 +15 58 26.7 17.8 V 703 – Catalina Sky Survey MPS 154095
2005 11 30.31620 04 59 21.46 +15 43 56.8 18.5   704 – Lincoln Laboratory ETS, New Mexico MPS 154095
2005 11 30.32900 04 59 20.61 +15 43 50.9 19.3   704 – Lincoln Laboratory ETS, New Mexico MPS 154095
2005 11 30.34196 04 59 19.68 +15 43 44.5 19.2   704 – Lincoln Laboratory ETS, New Mexico MPS 154095
2005 11 30.35475 04 59 18.86 +15 43 39.2 19.3   704 – Lincoln Laboratory ETS, New Mexico MPS 154095
2005 12 01.59377 04 58 00.03 +15 34 24.6 18.6 V 400 – Kitami MPS 154095
2005 12 01.61843 04 57 58.49 +15 34 13.0 18.3 V 400 – Kitami MPS 154095
2005 12 01.64299 04 57 56.68 +15 34 03.1 18.5 V 400 – Kitami MPS 154095
2005 12 02.58500 04 56 56.35 +15 27 07.3 18.7 V 400 – Kitami MPS 154095
2005 12 02.60950 04 56 54.73 +15 26 56.6 18.3 V 400 – Kitami MPS 154095
2005 12 07.16124 04 52 02.43 +14 54 55.5 18.8 V 691 – Steward Observatory, Kitt Peak-Spacewatch MPS 154095
2005 12 07.18398 04 52 00.93 +14 54 46.6 18.8 V 691 – Steward Observatory, Kitt Peak-Spacewatch MPS 154095
2005 12 07.20660 04 51 59.41 +14 54 37.6 18.8 V 691 – Steward Observatory, Kitt Peak-Spacewatch MPS 154095
2005 12 07.26600 04 51 55.45 +14 54 13.4 18.3   704 – Lincoln Laboratory ETS, New Mexico MPS 154095
2005 12 07.27988 04 51 54.51 +14 54 07.6 19.1   704 – Lincoln Laboratory ETS, New Mexico MPS 154095
2005 12 07.29271 04 51 53.55 +14 54 01.6 19.4   704 – Lincoln Laboratory ETS, New Mexico MPS 154095
2005 12 07.30542 04 51 52.82 +14 53 57.7 19.0   704 – Lincoln Laboratory ETS, New Mexico MPS 154095
2005 12 07.31820 04 51 51.92 +14 53 51.8 18.9   704 – Lincoln Laboratory ETS, New Mexico MPS 154095
2005 12 08.26428 04 50 51.81 +14 47 33.8 18.9   704 – Lincoln Laboratory ETS, New Mexico MPS 154095
2005 12 08.27745 04 50 50.98 +14 47 29.4 18.9   704 – Lincoln Laboratory ETS, New Mexico MPS 154095
2005 12 08.31628 04 50 48.41 +14 47 13.0 19.3   704 – Lincoln Laboratory ETS, New Mexico MPS 154095
2005 12 22.23332 04 37 39.32 +13 31 34.5 18.6 V 703 – Catalina Sky Survey MPS 156161
2005 12 22.24069 04 37 38.92 +13 31 32.7 18.6 V 703 – Catalina Sky Survey MPS 156161
2005 12 22.24809 04 37 38.56 +13 31 30.3 18.5 V 703 – Catalina Sky Survey MPS 156161
2005 12 22.25551 04 37 38.17 +13 31 29.1 18.6 V 703 – Catalina Sky Survey MPS 156161
2005 12 27.21187 04 34 07.21 +13 13 32.8 19.8   704 – Lincoln Laboratory ETS, New Mexico MPS 159062
2005 12 27.22470 04 34 06.73 +13 13 31.9 20.1   704 – Lincoln Laboratory ETS, New Mexico MPS 159062
2005 12 27.23749 04 34 06.19 +13 13 28.4 19.6   704 – Lincoln Laboratory ETS, New Mexico MPS 159062
2005 12 27.26335 04 34 05.23 +13 13 25.0 19.6   704 – Lincoln Laboratory ETS, New Mexico MPS 159062
2005 12 27.33623 04 34 02.28 +13 13 09.1 18.7 V 703 – Catalina Sky Survey MPS 159062
2005 12 27.34424 04 34 01.95 +13 13 08.5 18.5 V 703 – Catalina Sky Survey MPS 159062
2005 12 27.35234 04 34 01.70 +13 13 07.3 18.6 V 703 – Catalina Sky Survey MPS 159062
2005 12 27.36054 04 34 01.27 +13 13 06.1 18.3 V 703 – Catalina Sky Survey MPS 159062
2006 01 03.20881 04 30 34.28 +12 56 57.9 19.3   704 – Lincoln Laboratory ETS, New Mexico MPS 157852
2006 01 03.23500 04 30 33.66 +12 56 55.7 19.4   704 – Lincoln Laboratory ETS, New Mexico MPS 157852
2006 01 03.24801 04 30 33.33 +12 56 54.1 19.4   704 – Lincoln Laboratory ETS, New Mexico MPS 157852
2006 01 03.26105 04 30 33.03 +12 56 53.4 19.5   704 – Lincoln Laboratory ETS, New Mexico MPS 157852
2006 01 04.13999 04 30 14.26 +12 55 31.6 19.1 R 699 – Lowell Observatory-LONEOS MPS 157852
2006 01 04.16376 04 30 13.72 +12 55 29.2   699 – Lowell Observatory-LONEOS MPS 157852
2006 01 04.18749 04 30 13.23 +12 55 26.8   699 – Lowell Observatory-LONEOS MPS 157852
2006 01 04.21127 04 30 12.65 +12 55 25.3   699 – Lowell Observatory-LONEOS MPS 157852
2007 04 14.33211 14 30 04.85 -17 13 33.0   291 – LPL/Spacewatch II MPS 206950
2007 04 14.33599 14 30 04.63 -17 13 31.1   291 – LPL/Spacewatch II MPS 206950
2007 04 14.33990 14 30 04.42 -17 13 29.6   291 – LPL/Spacewatch II MPS 206950
2007 04 16.39866 14 28 11.11 -16 58 57.9   291 – LPL/Spacewatch II MPS 206950
2007 04 16.40273 14 28 10.88 -16 58 56.3   291 – LPL/Spacewatch II MPS 206950
2007 04 16.40667 14 28 10.64 -16 58 54.6   291 – LPL/Spacewatch II MPS 206950
2007 04 19.30744 14 25 26.03 -16 37 35.2 20.6 V 691 – Steward Observatory, Kitt Peak-Spacewatch MPS 206950
2007 04 19.32583 14 25 24.94 -16 37 27.3 20.9 V 691 – Steward Observatory, Kitt Peak-Spacewatch MPS 206950
2007 04 19.34448 14 25 23.82 -16 37 18.8 20.7 V 691 – Steward Observatory, Kitt Peak-Spacewatch MPS 206950
2007 04 23.27823 14 21 33.34 -16 07 04.3   691 – Steward Observatory, Kitt Peak-Spacewatch MPS 208109
2007 04 23.29785 14 21 32.13 -16 06 55.0   691 – Steward Observatory, Kitt Peak-Spacewatch MPS 208109
2007 04 23.31698 14 21 30.98 -16 06 46.1   691 – Steward Observatory, Kitt Peak-Spacewatch MPS 208109
2007 04 27.28922 14 17 34.17 -15 35 05.5 20.1 V 691 – Steward Observatory, Kitt Peak-Spacewatch MPS 208109
2007 04 27.32210 14 17 32.15 -15 34 49.4 20.4 V 691 – Steward Observatory, Kitt Peak-Spacewatch MPS 208109
